Location: Krasnoyarskiy Pitomnik
(51.1333°N, 71.6167°E)
Time: 04:06:36
(UTC+00:00)

A-11 Canister half - Visible Passes

Search period start: 22 April 2024 00:00
Search period end: 02 May 2024 00:00
Orbit: 1525 x 1683 km, 47.3° (Epoch: 21 April)

Date Brightness Start Highest point End Pass type
(mag) Time Alt. Az. Time Alt. Az. Time Alt. Az.
23 Apr 10.4 23:14:02 10° SSW 23:22:22 32° SE 23:30:50 10° E visible
24 Apr 10.3 22:52:30 10° SSW 23:00:40 31° SE 23:09:00 10° E visible
25 Apr 10.3 22:30:58 10° S 22:38:59 29° SE 22:47:09 10° E visible
26 Apr 10.3 22:09:27 10° S 22:17:18 28° SE 22:25:17 10° E visible
27 Apr 10.3 21:48:30 12° S 21:55:37 27° SE 22:03:26 10° E visible
28 Apr 10.3 21:27:49 14° S 21:33:56 25° SE 21:41:32 10° E visible
29 Apr 10.3 21:07:06 16° S 21:12:17 24° SE 21:19:40 10° E visible
29 Apr 9.6 23:06:13 10° SW 23:15:42 54° SSE 23:25:25 10° E visible
30 Apr 10.3 20:46:19 17° SSE 20:50:36 23° SE 20:57:45 10° E visible
30 Apr 9.5 22:44:35 10° SW 22:53:58 53° SSE 23:03:37 10° E visible
01 May 10.3 20:25:30 18° SSE 20:28:57 22° SE 20:35:50 10° E visible
01 May 9.5 22:23:45 13° SW 22:32:14 51° SSE 22:41:50 10° E visible
